Notices

What's New in latest Release from April 7th, 2021:

- Updated Glossary, including Speed of Maximum Gust, and Total Hourly Precipitation

- Updated national and regional climate services offices contacts and prices information

- Addition of station inventory lists for 1981-2010, 1971-2000, and 1961-1990 Normals.

If you haven't already, please take our survey and provide feedback about our website: https://eccc.sondage-survey.ca/f/LanguageSelection.aspx?s=442ca660-fcf1-47c0-95a9-59707d6fd709

Hourly Data Report for April 01, 2021

WIARTON A
ONTARIO
Current Station Operator: NAVCAN

44°44'39.000" N
81°06'31.000" W
221.90 m
6119499
71633
YVV

Download Data

Hourly Data (April 2021)
Hourly Data Report for April 1, 2021
TIME
LST
Temp Definition
°C
Dew Point Definition
°C
Rel Hum Definition
%
Precip. Amount Definition
mm

Wind Dir Definition
10's deg

Wind Spd Definition
km/h
Visibility Definition
km
Stn Press Definition
kPa
Hmdx Definition


Wind Chill Definition


Weather Definition


00:00 -1.6 -9.2 57   32 13 24.1 99.41   -6 LegendNANA
01:00 -2.0 -9.1 59   30 20 24.1 99.41   -8 Mostly Cloudy
02:00 -2.2 -8.8 61   30 22 24.1 99.37   -8 LegendNANA
03:00 -2.4 -8.7 62   30 17 24.1 99.35   -8 LegendNANA
04:00 -3.6 -5.8 84   33 16 1.2 99.35   -9 Snow
05:00 -3.7 -4.5 94   34 9 1.2 99.37   -7 Snow
06:00 -4.1 -7.0 81   2 16 4.8 99.44   -10 Snow
07:00 -4.8 -8.7 74   2 18 8.1 99.50   -11 Snow,Blowing Snow
08:00 -5.5 -10.6 67   1 24 16.1 99.59   -13 Blowing Snow
09:00 -5.3 -10.6 66   1 18 24.1 99.68   -12 LegendNANA
10:00 -6.1 -11.3 67   1 16 19.3 99.79   -12 Snow
11:00 -6.5 -11.2 70   36 17 12.9 99.84   -13 Snow
12:00 -5.8 -11.7 63   34 15 9.7 99.89   -12 Snow
13:00 -4.9 -11.2 62   34 16 19.3 99.89   -11 Snow
14:00 -3.5 -12.0 52   2 23 24.1 99.88   -10 LegendNANA
15:00 -2.3 -12.3 46   1 22 24.1 99.87   -8 LegendNANA
16:00 -1.9 -13.5 41   34 21 24.1 99.88   -8 Clear
17:00 -1.1 -14.3 36   34 17 24.1 99.91   -6 LegendNANA
18:00 -1.0 -15.3 33   35 17 24.1 99.95   -6 LegendNANA
19:00 -1.4 -15.1 35   33 14 24.1 99.96   -6 Clear
20:00 -1.5 -13.9 38   33 11 24.1 100.01   -5 LegendNANA
21:00 -1.4 -13.4 40   32 9 24.1 100.06   -5 LegendNANA
22:00 -1.1 -14.4 36   1 12 24.1 100.06   -5 Clear
23:00 -1.2 -14.6 36   1 18 24.1 100.09   -6 LegendNANA

Notes on Data Quality.

Legend

  • E = Estimated
  • M = Missing
  • NA = Not Available*
  • [empty] = Indicates an unobserved value
Date modified: